Greenville, ME

5:18 AM EDT on March 26, 2017 (GMT -0400)
Greenville

Weather History for KGNR - July, 2013

Change the Weather History Date:

Saturday, July 20, 2013

  Actual Average (KMLT) Record (KMLT)
Temperature  
Mean Temperature 71 °F -  
Max Temperature 80 °F 80 °F 93 °F (1991)
Min Temperature 60 °F 59 °F 43 °F (1943)
Cooling Degree Days 6    
Growing Degree Days 21 (Base 50)    
Moisture  
Dew Point 62 °F    
Average Humidity 73    
Maximum Humidity 93    
Minimum Humidity 58    
Precipitation  
Precipitation 0.00 in - - ()
Sea Level Pressure  
Sea Level Pressure 29.64 in    
Wind  
Wind Speed 3 mph (NW)    
Max Wind Speed 12 mph    
Max Gust Speed 33 mph    
Averages and records for this station are not official NWS values.
T = Trace of Precipitation, MM = Missing Value Source: NWS Daily Summary

Daily Weather History Graph

Daily Weather History Graph

Search for Another Location

Airport or City:

Trip Planner

Search our weather history database for the weather conditions in past years. The results will help you decide how hot, cold, wet, or windy it might be!

Date:

Astronomy

Jul. 20, 2013 Rise Set
Actual Time 5:09 AM EDT 8:19 PM EDT
Civil Twilight 4:33 AM EDT 8:55 PM EDT
Nautical Twilight 3:47 AM EDT 9:41 PM EDT
Astronomical Twilight 2:50 AM EDT 10:37 PM EDT
Moon 6:18 PM EDT (7/20) 2:46 AM EDT (7/20)
Length of Visible Light 16h 21m
Length of Day
15h 10m
Waxing Gibbous, 93% of the Moon is Illuminated
Jul 20
Waxing Gibbous
Jul 22
Full
Jul 29
Last Quarter
Aug 6
New
Aug 14
First Quarter

Hourly Weather History & Observations

Time (EDT) Temp. Heat Index Dew Point Humidity Pressure Visibility Wind Dir Wind Speed Gust Speed Precip Events Conditions
12:56 AM 66.0 °F - 64.0 °F 93% 29.60 in - East 4.6 mph - N/A   Unknown
1:56 AM 66.9 °F - 63.0 °F 87% 29.60 in - Calm Calm - N/A   Unknown
2:56 AM 68.0 °F - 62.1 °F 81% 29.58 in - Calm Calm - N/A   Unknown
3:56 AM 68.0 °F - 63.0 °F 84% 29.58 in - Calm Calm - N/A   Unknown
4:56 AM 69.1 °F - 64.0 °F 84% 29.61 in - Calm Calm - N/A   Unknown
5:56 AM 69.1 °F - 63.0 °F 81% 29.61 in - Calm Calm - N/A   Unknown
6:56 AM 72.0 °F - 64.0 °F 76% 29.64 in - Variable 4.6 mph - N/A   Unknown
7:56 AM 72.0 °F - 64.9 °F 78% 29.66 in - Calm Calm - N/A   Unknown
8:56 AM 73.9 °F - 64.9 °F 73% 29.65 in - Variable 3.5 mph - N/A   Unknown
9:56 AM 73.9 °F - 66.0 °F 76% 29.64 in - Variable 3.5 mph - N/A   Unknown
10:56 AM 73.0 °F - 64.9 °F 76% 29.64 in - Calm Calm - N/A   Unknown
11:56 AM 72.0 °F - 66.0 °F 81% 29.63 in - Calm Calm - N/A   Unknown
12:56 PM 73.0 °F - 64.9 °F 76% 29.62 in - Variable 3.5 mph - N/A   Unknown
1:56 PM 75.9 °F - 64.0 °F 67% 29.60 in - Variable 3.5 mph - N/A   Unknown
2:56 PM 77.0 °F - 64.9 °F 66% 29.60 in - Calm Calm - N/A   Unknown
3:56 PM 80.1 °F 81.9 °F 64.9 °F 60% 29.58 in - Variable 5.8 mph - N/A   Unknown
4:56 PM 79.0 °F - 63.0 °F 58% 29.58 in - Variable 3.5 mph - N/A   Unknown
5:56 PM 79.0 °F - 63.0 °F 58% 29.59 in - Calm Calm - N/A   Unknown
6:56 PM 73.0 °F - 57.9 °F 59% 29.64 in - NW 9.2 mph 33.4 mph N/A   Unknown
7:56 PM 69.1 °F - 55.0 °F 61% 29.67 in - NW 8.1 mph 21.9 mph N/A   Unknown
8:56 PM 66.0 °F - 52.0 °F 60% 29.71 in - NW 8.1 mph 25.3 mph N/A   Unknown
9:56 PM 64.0 °F - 54.0 °F 70% 29.74 in - NW 11.5 mph 24.2 mph N/A   Unknown
10:56 PM 62.1 °F - 53.1 °F 72% 29.76 in - NW 8.1 mph 18.4 mph N/A   Unknown
11:56 PM 60.1 °F - 51.1 °F 72% 29.79 in - Variable 4.6 mph - N/A   Unknown